AirNav   TITAN Aviation Fuels
 
 1116 users online  

49MN Willow Ridge Airport
Hastings, Minnesota, USA

GOING TO HASTINGS?


FAA INFORMATION EFFECTIVE 26 JANUARY 2023

Location

FAA Identifier: 49MN
Lat/Long: 44-40-18.8820N 092-49-34.7320W
44-40.314700N 092-49.578867W
44.6719117,-92.8263144
(estimated)
Elevation: 839 ft. / 256 m (estimated)
Variation: 03E (1985)
From city: 4 miles SE of HASTINGS, MN
Time zone: UTC -6 (UTC -5 during Daylight Saving Time)
Zip code: 55033

Airport Operations

Airport use: Private use, PERSONAL USE.
Activation date: 12/1978
Control tower: no
ARTCC: MINNEAPOLIS CENTER
FSS: PRINCETON FLIGHT SERVICE STATION
Attendance: UNATNDD
Wind indicator: yes
Segmented circle: no

Airport Communications

WX AWOS-3 at SGS (14 nm NW): 119.425 (651-457-8120)
WX AWOS-3 at SYN (14 nm SW): 119.35 (507-664-3806)
WX AWOS-3 at RGK (15 nm E): 119.25 (715-594-3763)
WX AWOS-3 at LVN (17 nm W): 118.0 (952-469-5850)
WX ASOS at STP (19 nm NW): 118.35 (651-312-8888)
WX AWOS-3 at 21D (20 nm N): 120.075 (651-779-5949)

Nearby radio navigation aids

VOR radial/distance  VOR name  Freq  Var
FGTr075/15.4FARMINGTON VORTAC115.7006E
MSPr126/22.1MINNEAPOLIS VOR/DME115.3002E
FCMr108/27.8FLYING CLOUD VOR/DME117.7001E
FOWr038/36.5HALFWAY VOR/DME111.2002E
GEPr135/36.7GOPHER VORTAC117.3006E

 
NDB name  Hdg/Dist  Freq  Var  ID
REGUE298/8.827402ERG .-. --.

Airport Services

Runway Information

Runway E/W

Dimensions: 2200 x 75 ft. / 671 x 23 m
Surface: turf
RUNWAY E  RUNWAY W
Traffic pattern: leftleft

Airport Ownership and Management from official FAA records

Ownership: Privately-owned
Owner: STEPHEN J. WEBER
19150 MICHAEL AVE.
HASTINGS, MN 55033
Phone (651) 437-1951
Manager: STEPHEN J. WEBER
19150 MICHAEL AVE.
HASTINGS, MN 55033
Phone (651) 437-1951
CELL: 651-983-2899

Airport Operational Statistics

Aircraft based on the field: 7
Single engine airplanes: 7
    

Additional Remarks

FOR CD CTC MINNEAPOLIS ARTCC AT 651-463-5588.

Instrument Procedures

There are no published instrument procedures at 49MN.

Some nearby airports with instrument procedures:

KSGS - South St Paul Municipal Airport/Richard E Fleming Field (14 nm NW)
KRGK - Red Wing Regional Airport (15 nm E)
KLVN - Airlake Airport (17 nm W)
KSTP - St Paul Downtown Airport Holman Field (19 nm NW)
21D - Lake Elmo Airport (20 nm N)
 
Loc | Ops | Rwys | IFR | FBO | Links
Com | Nav | Svcs | Stats | Notes
Area around 49MN (Willow Ridge Airport)
 
Road maps at: MapQuest Bing Google
 
Aerial photo
No photo
 
Sectional chart

 
Airport distance calculator
Flying to Willow Ridge Airport? Find the distance to fly.

From to 49MN

Sunrise and sunset
Times for 27-Jan-2023
 Local
(UTC-6)
 Zulu
(UTC)
Morning civil twilight07:0513:05
Sunrise07:3713:37
Sunset17:1223:12
Evening civil twilight17:4323:43

Current date and time
Zulu (UTC)  27-Jan-2023 23:55:08
Local (UTC-6)  27-Jan-2023 17:55:08
 
METAR
KSYN 
14nm SW 
272335Z AUTO 27010KT 10SM CLR M09/M14 A2984 RMK AO2 T10911139
KRGK 
17nm E 
272335Z AUTO 28008G14KT 10SM CLR M07/M13 A2981 RMK AO2
KLVN 
17nm W 
272335Z AUTO 27007G15KT 10SM CLR M10/M15 A2985 RMK AO2
KSGS 
17nm NW 
272335Z AUTO 28007KT 10SM CLR M07/M14 A2982 RMK AO2 T10731138
KSTP 
18nm NW 
272253Z 30015KT 10SM CLR M07/M14 A2981 RMK AO2 PK WND 29026/2212 SLP101 T10671139
K21D 
20nm N 
272335Z AUTO 29012G16KT 10SM CLR M07/M14 A2982 RMK AO2
KMSP 
21nm NW 
272338Z 27012G22KT 10SM CLR M09/M14 A2985 RMK AO2 PRESRR T10891144
TAF
NOTAMs
Click for the latest NOTAMs
NOTAMs are issued by the DoD/FAA and will open in a separate window not controlled by AirNav.

 

 
 

Would you like to see your business listed on this page?

 If your business provides an interesting product or service to pilots, flight crews, aircraft, or users of the Willow Ridge Airport, you should consider listing it here.  To start the listing process, click on the button below
 
Add a business
 

Other Pages about Willow Ridge Airport

Update a link
 
Copyright © AirNav, LLC. All rights reserved. Privacy Policy  Contact